NOAA 16 DEB, 41360

Orbit data source: Space-Track

NOAA 16 DEB, 41360 is space debris in SSO originally from a launch on Thu, 21 Sep 2000 UTC launched from the Air Force Western Test Range (AFWTR). Debris objects in space refer to the collection of defunct objects orbiting the Earth. Examples of debris include non-operational satellites, rocket bodies, and fragments generated from explosions, collisions, or faulty payload assembly.

Loading next visibility...
Identifier
41360, 2000-055JD
Orbit
SSO
Country
Flag of USUS
Related business
Manufacturer
Unknown
Mission
Spacecraft
Bus & Motor
Unknown
Mass
Unknown
Launch date (UTC)
2000-09-21 (25 years ago)
Launch vehicle
Unknown
Launch site
Air Force Western Test Range (AFWTR)
Object type
Payload
Rocket body
Debris
Shape & HBR
Unknown shape, 0.1 m
Radar Cross Section
Small (<0.1 m²)

Expand to show TLE details & history
Last TLE update: 23 hours ago

TLE from 23 hours ago
0 NOAA 16 DEB
1 41360U 00055JD  25301.57109382  .00006402  00000-0  24645-2 0  9995
2 41360  98.8865  57.3010 0021730 325.2139  34.7621 14.30549352504080
Epoch: 2025-10-28T13:42Z
TLE epoch observation values (Epoch: 2025-10-28T13:42:22.506Z)
Latitude
-0°
Longitude
174.55055°
Altitude
780.031 km
Speed
7.471 km/s
True Right ascension
03h 49m 12s
True Declination
0° 00' 00"
Sunlit
Object was in full shadow at epoch
Visualization orbit readout
Latitude
Unknown
Longitude
Unknown
Altitude
Unknown
Speed
Unknown
Apparent Right ascension
Unknown
Apparent Declination
Unknown
Sunlit
N/A
Visualization observer readout
Local Sidereal Time
08:04:54
Azimuth
Unknown
Elevation
Unknown
Doppler factor
Unknown
Orbital elements
Apogee altitude
802.618 km
Perigee altitude
771.478 km
Semi-major axis
7,165.185 km
Eccentricity
0.00217
Inclination
98.8865°
RAAN
57.301°
Arg. of periapsis
325.2139°
True anomaly
34.90439°
Mean anomaly
34.7621°
Eccentric anomaly
34.83322°
Mean motion
3.57851 °/min
Orbital period
100.6 mins
BSTAR
0.0024645
Loading maneuver chart data...
Computing Atmospheric mass density...

Documentation

Showing up to 5 results
|